Wetterdaten: Montag, 28.05.2012
Datum Zeit Temperatur Luftfeuchte Regen Wind Richtung Richtung Taupunkt Windchill Windben
28.05.2012 00:00 11,2 C 68 % 0,0 l/m 0,0 km/h (0 Bft) NO 45 5,5 C 11,0 C 0,0 km/h (0 Bft)
28.05.2012 00:05 11,0 C 69 % 0,0 l/m 0,0 km/h (0 Bft) N-NO 22 5,5 C 10,7 C 0,0 km/h (0 Bft)
28.05.2012 00:10 10,5 C 69 % 0,0 l/m 0,0 km/h (0 Bft) N 360 5,1 C 10,4 C 0,0 km/h (0 Bft)
28.05.2012 00:15 10,5 C 70 % 0,0 l/m 0,0 km/h (0 Bft) N-NO 22 5,3 C 10,2 C 0,0 km/h (0 Bft)
28.05.2012 00:20 10,3 C 70 % 0,0 l/m 0,0 km/h (0 Bft) N-NO 22 5,1 C 10,0 C 0,0 km/h (0 Bft)
28.05.2012 00:25 10,0 C 70 % 0,0 l/m 0,0 km/h (0 Bft) O-SO 112 4,8 C 9,8 C 0,0 km/h (0 Bft)
28.05.2012 00:30 10,0 C 71 % 0,0 l/m 0,0 km/h (0 Bft) N-NO 22 5,0 C 9,5 C 0,0 km/h (0 Bft)
28.05.2012 00:35 10,0 C 72 % 0,0 l/m 0,0 km/h (0 Bft) NO 45 5,2 C 9,4 C 0,0 km/h (0 Bft)
28.05.2012 00:40 9,7 C 72 % 0,0 l/m 0,0 km/h (0 Bft) N-NO 22 4,9 C 9,3 C 0,0 km/h (0 Bft)
28.05.2012 00:45 9,5 C 72 % 0,0 l/m 0,0 km/h (0 Bft) N-NO 22 4,7 C 9,1 C 0,0 km/h (0 Bft)
28.05.2012 00:50 9,3 C 73 % 0,0 l/m 0,0 km/h (0 Bft) O-SO 112 4,7 C 8,9 C 0,0 km/h (0 Bft)
28.05.2012 00:55 9,2 C 73 % 0,0 l/m 0,0 km/h (0 Bft) NO 45 4,6 C 8,9 C 0,0 km/h (0 Bft)
28.05.2012 01:00 9,0 C 73 % 0,0 l/m 0,0 km/h (0 Bft) N-NO 22 4,4 C 8,7 C 0,0 km/h (0 Bft)
28.05.2012 01:05 8,9 C 74 % 0,0 l/m 0,0 km/h (0 Bft) S-SW 202 4,5 C 8,6 C 0,0 km/h (0 Bft)
28.05.2012 01:10 8,9 C 75 % 0,0 l/m 0,0 km/h (0 Bft) N-NO 22 4,7 C 8,5 C 0,0 km/h (0 Bft)
28.05.2012 01:15 8,9 C 75 % 0,0 l/m 0,0 km/h (0 Bft) W-SW 247 4,7 C 8,4 C 0,0 km/h (0 Bft)
28.05.2012 01:20 8,7 C 75 % 0,0 l/m 0,0 km/h (0 Bft) N-NO 22 4,5 C 8,3 C 0,0 km/h (0 Bft)
28.05.2012 01:25 8,7 C 76 % 0,0 l/m 0,0 km/h (0 Bft) NO 45 4,7 C 8,2 C 0,0 km/h (0 Bft)
28.05.2012 01:30 8,7 C 76 % 0,0 l/m 0,0 km/h (0 Bft) N-NO 22 4,7 C 8,1 C 0,0 km/h (0 Bft)
28.05.2012 01:35 8,6 C 76 % 0,0 l/m 0,0 km/h (0 Bft) N-NO 22 4,6 C 8,0 C 0,0 km/h (0 Bft)
28.05.2012 01:40 8,4 C 76 % 0,0 l/m 0,0 km/h (0 Bft) N 360 4,4 C 7,9 C 0,0 km/h (0 Bft)
28.05.2012 01:45 8,3 C 76 % 0,0 l/m 0,0 km/h (0 Bft) NO 45 4,3 C 7,7 C 0,0 km/h (0 Bft)
28.05.2012 01:50 8,0 C 77 % 0,0 l/m 0,0 km/h (0 Bft) S-SW 202 4,2 C 7,5 C 0,0 km/h (0 Bft)
28.05.2012 01:55 7,7 C 77 % 0,0 l/m 0,0 km/h (0 Bft) S-SW 202 3,9 C 7,3 C 0,0 km/h (0 Bft)
28.05.2012 02:00 7,5 C 78 % 0,0 l/m 0,0 km/h (0 Bft) S-SW 202 3,9 C 7,2 C 0,0 km/h (0 Bft)
28.05.2012 02:05 7,5 C 78 % 0,0 l/m 0,0 km/h (0 Bft) S-SW 202 3,9 C 7,2 C 0,0 km/h (0 Bft)
28.05.2012 02:10 7,4 C 79 % 0,0 l/m 0,0 km/h (0 Bft) N-NO 22 4,0 C 7,0 C 0,0 km/h (0 Bft)
28.05.2012 02:15 7,5 C 79 % 0,0 l/m 0,0 km/h (0 Bft) N-NO 22 4,1 C 6,9 C 0,0 km/h (0 Bft)
28.05.2012 02:20 7,5 C 79 % 0,0 l/m 0,0 km/h (0 Bft) N-NO 22 4,1 C 6,9 C 0,0 km/h (0 Bft)
28.05.2012 02:25 7,5 C 79 % 0,0 l/m 0,0 km/h (0 Bft) N-NO 22 4,1 C 7,0 C 0,0 km/h (0 Bft)
28.05.2012 02:30 7,7 C 79 % 0,0 l/m 0,0 km/h (0 Bft) N-NW 337 4,3 C 7,1 C 0,0 km/h (0 Bft)
28.05.2012 02:35 8,1 C 80 % 0,0 l/m 0,0 km/h (0 Bft) NO 45 4,9 C 7,3 C 0,0 km/h (0 Bft)
28.05.2012 02:40 8,8 C 80 % 0,0 l/m 0,2 km/h (0 Bft) NO 45 5,5 C 8,0 C 0,0 km/h (0 Bft)
28.05.2012 02:45 8,9 C 80 % 0,0 l/m 0,3 km/h (0 Bft) N-NO 22 5,6 C 8,2 C 0,0 km/h (0 Bft)
28.05.2012 02:50 9,1 C 79 % 0,0 l/m 0,2 km/h (0 Bft) N 360 5,7 C 8,6 C 0,0 km/h (0 Bft)
28.05.2012 02:55 9,0 C 78 % 0,0 l/m 0,0 km/h (0 Bft) O-NO 67 5,4 C 8,7 C 0,0 km/h (0 Bft)
28.05.2012 03:00 8,9 C 78 % 0,0 l/m 0,0 km/h (0 Bft) S 180 5,3 C 8,8 C 0,0 km/h (0 Bft)
28.05.2012 03:05 8,8 C 78 % 0,0 l/m 0,0 km/h (0 Bft) S 180 5,2 C 8,8 C 0,0 km/h (0 Bft)
28.05.2012 03:10 8,8 C 78 % 0,0 l/m 0,0 km/h (0 Bft) N-NO 22 5,2 C 8,7 C 0,0 km/h (0 Bft)
28.05.2012 03:15 8,9 C 78 % 0,0 l/m 0,2 km/h (0 Bft) SO 135 5,3 C 8,8 C 1,9 km/h (1 Bft)
28.05.2012 03:20 8,9 C 80 % 0,0 l/m 0,2 km/h (0 Bft) O-SO 112 5,6 C 8,8 C 0,0 km/h (0 Bft)
28.05.2012 03:25 8,9 C 79 % 0,0 l/m 0,2 km/h (0 Bft) W-NW 292 5,5 C 8,8 C 0,0 km/h (0 Bft)
28.05.2012 03:30 9,0 C 79 % 0,0 l/m 0,0 km/h (0 Bft) S-SW 202 5,6 C 8,8 C 0,0 km/h (0 Bft)
28.05.2012 03:35 8,9 C 79 % 0,0 l/m 0,0 km/h (0 Bft) S-SW 202 5,5 C 8,8 C 0,0 km/h (0 Bft)
28.05.2012 03:40 8,9 C 79 % 0,0 l/m 0,0 km/h (0 Bft) S 180 5,5 C 8,7 C 0,0 km/h (0 Bft)
28.05.2012 03:45 8,9 C 79 % 0,0 l/m 0,0 km/h (0 Bft) S 180 5,5 C 8,7 C 0,0 km/h (0 Bft)
28.05.2012 03:50 8,9 C 79 % 0,0 l/m 0,0 km/h (0 Bft) SO 135 5,5 C 8,7 C 0,0 km/h (0 Bft)
28.05.2012 03:55 8,9 C 79 % 0,0 l/m 0,2 km/h (0 Bft) N 360 5,5 C 8,7 C 2,1 km/h (1 Bft)
28.05.2012 04:00 9,3 C 79 % 0,0 l/m 0,3 km/h (0 Bft) NO 45 5,8 C 8,9 C 0,0 km/h (0 Bft)
28.05.2012 04:05 9,4 C 79 % 0,0 l/m 0,3 km/h (0 Bft) NO 45 5,9 C 9,0 C 0,0 km/h (0 Bft)
28.05.2012 04:10 9,4 C 78 % 0,0 l/m 0,0 km/h (0 Bft) NO 45 5,8 C 9,1 C 0,0 km/h (0 Bft)
28.05.2012 04:15 9,2 C 78 % 0,0 l/m 0,0 km/h (0 Bft) NO 45 5,6 C 9,0 C 0,0 km/h (0 Bft)
28.05.2012 04:20 9,2 C 78 % 0,0 l/m 0,0 km/h (0 Bft) N-NO 22 5,6 C 8,9 C 0,0 km/h (0 Bft)
28.05.2012 04:25 9,2 C 78 % 0,0 l/m 0,0 km/h (0 Bft) NO 45 5,6 C 8,9 C 0,0 km/h (0 Bft)
28.05.2012 04:30 9,2 C 78 % 0,0 l/m 0,0 km/h (0 Bft) N 360 5,6 C 8,9 C 0,0 km/h (0 Bft)
28.05.2012 04:35 9,3 C 78 % 0,0 l/m 0,0 km/h (0 Bft) N-NO 22 5,7 C 9,0 C 0,0 km/h (0 Bft)
28.05.2012 04:40 9,3 C 78 % 0,0 l/m 0,0 km/h (0 Bft) N-NO 22 5,7 C 9,1 C 0,0 km/h (0 Bft)
28.05.2012 04:45 9,2 C 78 % 0,0 l/m 0,0 km/h (0 Bft) N-NO 22 5,6 C 9,1 C 0,0 km/h (0 Bft)
28.05.2012 04:50 9,4 C 78 % 0,0 l/m 0,0 km/h (0 Bft) W 270 5,8 C 9,1 C 0,0 km/h (0 Bft)
28.05.2012 04:55 9,3 C 78 % 0,0 l/m 0,0 km/h (0 Bft) NO 45 5,7 C 9,1 C 0,0 km/h (0 Bft)
28.05.2012 05:00 9,3 C 77 % 0,0 l/m 0,0 km/h (0 Bft) N 360 5,5 C 9,1 C 0,0 km/h (0 Bft)
28.05.2012 05:05 9,3 C 77 % 0,0 l/m 0,0 km/h (0 Bft) N-NO 22 5,5 C 9,1 C 0,0 km/h (0 Bft)
28.05.2012 05:10 9,2 C 77 % 0,0 l/m 0,0 km/h (0 Bft) O 90 5,4 C 9,1 C 0,0 km/h (0 Bft)
28.05.2012 05:15 9,1 C 77 % 0,0 l/m 0,0 km/h (0 Bft) W-SW 247 5,3 C 9,0 C 0,0 km/h (0 Bft)
28.05.2012 05:20 9,0 C 77 % 0,0 l/m 0,0 km/h (0 Bft) N-NO 22 5,2 C 8,9 C 0,0 km/h (0 Bft)
28.05.2012 05:25 8,9 C 78 % 0,0 l/m 0,0 km/h (0 Bft) N 360 5,3 C 8,7 C 0,0 km/h (0 Bft)
28.05.2012 05:30 8,8 C 78 % 0,0 l/m 0,0 km/h (0 Bft) W-NW 292 5,2 C 8,5 C 0,0 km/h (0 Bft)
28.05.2012 05:35 8,8 C 78 % 0,0 l/m 0,0 km/h (0 Bft) W-NW 292 5,2 C 8,5 C 0,0 km/h (0 Bft)
28.05.2012 05:40 8,7 C 78 % 0,0 l/m 0,0 km/h (0 Bft) SW 225 5,1 C 8,4 C 0,0 km/h (0 Bft)
28.05.2012 05:45 8,6 C 79 % 0,0 l/m 0,0 km/h (0 Bft) SW 225 5,2 C 8,4 C 0,0 km/h (0 Bft)
28.05.2012 05:50 8,6 C 79 % 0,0 l/m 0,0 km/h (0 Bft) N-NO 22 5,2 C 8,3 C 0,0 km/h (0 Bft)
28.05.2012 05:55 8,6 C 79 % 0,0 l/m 0,0 km/h (0 Bft) O-NO 67 5,2 C 8,3 C 0,0 km/h (0 Bft)
28.05.2012 06:00 8,9 C 79 % 0,0 l/m 0,0 km/h (0 Bft) O-NO 67 5,5 C 8,5 C 0,0 km/h (0 Bft)
28.05.2012 06:05 9,0 C 79 % 0,0 l/m 0,0 km/h (0 Bft) N 360 5,6 C 8,6 C 0,0 km/h (0 Bft)
28.05.2012 06:10 8,9 C 79 % 0,0 l/m 0,0 km/h (0 Bft) N 360 5,5 C 8,6 C 0,0 km/h (0 Bft)
28.05.2012 06:15 8,9 C 79 % 0,0 l/m 0,0 km/h (0 Bft) S-SW 202 5,5 C 8,7 C 0,0 km/h (0 Bft)
28.05.2012 06:20 9,0 C 79 % 0,0 l/m 0,0 km/h (0 Bft) NO 45 5,6 C 8,8 C 0,0 km/h (0 Bft)
28.05.2012 06:25 9,1 C 79 % 0,0 l/m 0,0 km/h (0 Bft) N-NO 22 5,7 C 8,9 C 0,0 km/h (0 Bft)
28.05.2012 06:30 9,2 C 79 % 0,0 l/m 0,0 km/h (0 Bft) SW 225 5,8 C 9,0 C 0,0 km/h (0 Bft)
28.05.2012 06:35 9,3 C 79 % 0,0 l/m 0,0 km/h (0 Bft) SW 225 5,8 C 9,1 C 0,0 km/h (0 Bft)
28.05.2012 06:40 9,4 C 79 % 0,0 l/m 0,0 km/h (0 Bft) W-SW 247 5,9 C 9,2 C 0,0 km/h (0 Bft)
28.05.2012 06:45 9,5 C 78 % 0,0 l/m 0,0 km/h (0 Bft) S-SO 157 5,9 C 9,4 C 0,0 km/h (0 Bft)
28.05.2012 06:50 9,6 C 78 % 0,0 l/m 0,0 km/h (0 Bft) O-SO 112 6,0 C 9,5 C 0,0 km/h (0 Bft)
28.05.2012 06:55 9,8 C 79 % 0,0 l/m 0,0 km/h (0 Bft) N-NW 337 6,3 C 9,7 C 0,0 km/h (0 Bft)
28.05.2012 07:00 10,1 C 78 % 0,0 l/m 0,0 km/h (0 Bft) N-NO 22 6,4 C 10,0 C 0,0 km/h (0 Bft)
28.05.2012 07:05 10,4 C 78 % 0,0 l/m 0,0 km/h (0 Bft) N 360 6,7 C 10,2 C 0,0 km/h (0 Bft)
28.05.2012 07:10 10,7 C 78 % 0,0 l/m 0,0 km/h (0 Bft) N-NO 22 7,0 C 10,6 C 0,0 km/h (0 Bft)
28.05.2012 07:15 10,9 C 77 % 0,0 l/m 0,0 km/h (0 Bft) W-SW 247 7,0 C 10,9 C 0,0 km/h (0 Bft)
28.05.2012 07:20 11,0 C 77 % 0,0 l/m 0,0 km/h (0 Bft) S-SW 202 7,1 C 11,1 C 0,0 km/h (0 Bft)
28.05.2012 07:25 11,1 C 76 % 0,0 l/m 0,0 km/h (0 Bft) S 180 7,0 C 11,3 C 0,0 km/h (0 Bft)
28.05.2012 07:30 11,4 C 76 % 0,0 l/m 0,0 km/h (0 Bft) S 180 7,3 C 11,5 C 0,0 km/h (0 Bft)
28.05.2012 07:35 11,4 C 76 % 0,0 l/m 0,0 km/h (0 Bft) S 180 7,3 C 11,7 C 0,0 km/h (0 Bft)
28.05.2012 07:40 11,6 C 76 % 0,0 l/m 0,0 km/h (0 Bft) S-SO 157 7,5 C 12,0 C 0,0 km/h (0 Bft)
28.05.2012 07:45 12,0 C 75 % 0,0 l/m 0,0 km/h (0 Bft) S-SO 157 7,7 C 12,2 C 0,0 km/h (0 Bft)
28.05.2012 07:50 12,3 C 75 % 0,0 l/m 0,0 km/h (0 Bft) S 180 8,0 C 12,6 C 0,0 km/h (0 Bft)
28.05.2012 07:55 12,3 C 75 % 0,0 l/m 0,2 km/h (0 Bft) S 180 8,0 C 12,8 C 2,1 km/h (1 Bft)
28.05.2012 08:00 12,3 C 74 % 0,0 l/m 0,5 km/h (0 Bft) SO 135 7,8 C 12,9 C 2,4 km/h (1 Bft)
28.05.2012 08:05 12,3 C 73 % 0,0 l/m 0,3 km/h (0 Bft) NO 45 7,6 C 13,0 C 0,0 km/h (0 Bft)
28.05.2012 08:10 12,5 C 74 % 0,0 l/m 0,0 km/h (0 Bft) W 270 8,0 C 13,3 C 0,0 km/h (0 Bft)
28.05.2012 08:15 12,6 C 74 % 0,0 l/m 0,0 km/h (0 Bft) NO 45 8,1 C 13,4 C 0,0 km/h (0 Bft)
28.05.2012 08:20 12,7 C 74 % 0,0 l/m 0,0 km/h (0 Bft) SW 225 8,2 C 13,6 C 0,0 km/h (0 Bft)
28.05.2012 08:25 12,8 C 74 % 0,0 l/m 0,0 km/h (0 Bft) W-NW 292 8,3 C 13,6 C 0,0 km/h (0 Bft)
28.05.2012 08:30 13,0 C 72 % 0,0 l/m 0,0 km/h (0 Bft) W-SW 247 8,1 C 13,8 C 0,0 km/h (0 Bft)
28.05.2012 08:35 13,2 C 72 % 0,0 l/m 0,0 km/h (0 Bft) SO 135 8,3 C 14,1 C 0,0 km/h (0 Bft)
28.05.2012 08:40 13,5 C 72 % 0,0 l/m 0,0 km/h (0 Bft) O-SO 112 8,6 C 14,2 C 0,0 km/h (0 Bft)
28.05.2012 08:45 13,6 C 71 % 0,0 l/m 0,0 km/h (0 Bft) S 180 8,4 C 14,4 C 0,0 km/h (0 Bft)
28.05.2012 08:50 13,9 C 70 % 0,0 l/m 0,0 km/h (0 Bft) S-SO 157 8,5 C 14,5 C 0,0 km/h (0 Bft)
28.05.2012 08:55 14,0 C 70 % 0,0 l/m 0,0 km/h (0 Bft) S 180 8,6 C 14,7 C 0,0 km/h (0 Bft)
28.05.2012 09:00 14,0 C 69 % 0,0 l/m 0,0 km/h (0 Bft) O-SO 112 8,4 C 15,0 C 0,0 km/h (0 Bft)
28.05.2012 09:05 14,3 C 69 % 0,0 l/m 0,0 km/h (0 Bft) NO 45 8,7 C 15,3 C 0,0 km/h (0 Bft)
28.05.2012 09:10 14,9 C 67 % 0,0 l/m 0,0 km/h (0 Bft) O-SO 112 8,8 C 15,7 C 0,0 km/h (0 Bft)
28.05.2012 09:15 15,2 C 66 % 0,0 l/m 0,2 km/h (0 Bft) S-SO 157 8,9 C 16,1 C 0,0 km/h (0 Bft)
28.05.2012 09:20 15,7 C 65 % 0,0 l/m 0,2 km/h (0 Bft) S 180 9,1 C 16,5 C 0,0 km/h (0 Bft)
28.05.2012 09:25 15,9 C 63 % 0,0 l/m 0,2 km/h (0 Bft) SO 135 8,9 C 16,9 C 2,7 km/h (1 Bft)
28.05.2012 09:30 15,9 C 63 % 0,0 l/m 0,3 km/h (0 Bft) O 90 8,9 C 17,2 C 0,0 km/h (0 Bft)
28.05.2012 09:35 16,1 C 62 % 0,0 l/m 0,6 km/h (0 Bft) S 180 8,8 C 17,3 C 0,0 km/h (0 Bft)
28.05.2012 09:40 16,4 C 60 % 0,0 l/m 1,3 km/h (1 Bft) S-SO 157 8,6 C 17,5 C 4,7 km/h (1 Bft)
28.05.2012 09:45 16,5 C 59 % 0,0 l/m 1,4 km/h (1 Bft) S-SO 157 8,5 C 17,6 C 0,0 km/h (0 Bft)
28.05.2012 09:50 16,5 C 55 % 0,0 l/m 2,7 km/h (1 Bft) SO 135 7,4 C 17,6 C 8,2 km/h (2 Bft)
28.05.2012 09:55 16,8 C 56 % 0,0 l/m 3,1 km/h (1 Bft) SO 135 8,0 C 17,6 C 2,9 km/h (1 Bft)
28.05.2012 10:00 16,9 C 54 % 0,0 l/m 3,2 km/h (1 Bft) SO 135 7,5 C 17,9 C 5,1 km/h (1 Bft)
28.05.2012 10:05 17,0 C 54 % 0,0 l/m 3,4 km/h (1 Bft) S-SO 157 7,6 C 17,9 C 7,2 km/h (2 Bft)
28.05.2012 10:10 17,7 C 52 % 0,0 l/m 4,3 km/h (1 Bft) SO 135 7,9 C 18,2 C 5,5 km/h (1 Bft)
28.05.2012 10:15 18,0 C 51 % 0,0 l/m 4,7 km/h (1 Bft) SO 135 7,9 C 18,6 C 4,7 km/h (1 Bft)
28.05.2012 10:20 17,8 C 53 % 0,0 l/m 4,0 km/h (1 Bft) S-SO 157 8,1 C 18,8 C 5,1 km/h (1 Bft)
28.05.2012 10:25 19,2 C 49 % 0,0 l/m 3,9 km/h (1 Bft) O-SO 112 9,0 C 19,4 C 3,7 km/h (1 Bft)
28.05.2012 10:30 19,9 C 48 % 0,0 l/m 3,7 km/h (1 Bft) S 180 9,1 C 21,2 C 4,8 km/h (1 Bft)
28.05.2012 10:35 19,9 C 47 % 0,0 l/m 3,7 km/h (1 Bft) SW 225 8,7 C 21,5 C 6,0 km/h (2 Bft)
28.05.2012 10:40 19,3 C 46 % 0,0 l/m 5,1 km/h (1 Bft) S-SO 157 7,4 C 20,4 C 9,3 km/h (2 Bft)
28.05.2012 10:45 20,0 C 44 % 0,0 l/m 5,1 km/h (1 Bft) O-SO 112 7,4 C 20,8 C 5,5 km/h (1 Bft)
28.05.2012 10:50 20,7 C 43 % 0,0 l/m 4,2 km/h (1 Bft) S 180 7,7 C 21,2 C 8,4 km/h (2 Bft)
28.05.2012 10:55 20,1 C 42 % 0,0 l/m 4,5 km/h (1 Bft) SO 135 6,8 C 21,5 C 4,2 km/h (1 Bft)
28.05.2012 11:00 20,9 C 45 % 0,0 l/m 3,1 km/h (1 Bft) W-SW 247 8,5 C 22,3 C 4,3 km/h (1 Bft)
28.05.2012 11:05 21,0 C 42 % 0,0 l/m 2,7 km/h (1 Bft) O 90 7,6 C 23,5 C 6,3 km/h (2 Bft)
28.05.2012 11:10 20,9 C 42 % 0,0 l/m 4,0 km/h (1 Bft) W-SW 247 7,5 C 23,3 C 10,8 km/h (2 Bft)
28.05.2012 11:15 20,9 C 41 % 0,0 l/m 4,3 km/h (1 Bft) W-SW 247 7,2 C 23,1 C 5,8 km/h (2 Bft)
28.05.2012 11:20 20,0 C 43 % 0,0 l/m 3,9 km/h (1 Bft) S-SW 202 7,0 C 22,8 C 0,0 km/h (0 Bft)
28.05.2012 11:25 20,5 C 41 % 0,0 l/m 4,2 km/h (1 Bft) W 270 6,8 C 22,7 C 3,7 km/h (1 Bft)
28.05.2012 11:30 21,2 C 39 % 0,0 l/m 3,5 km/h (1 Bft) S-SW 202 6,7 C 22,9 C 4,3 km/h (1 Bft)
28.05.2012 11:35 22,0 C 39 % 0,0 l/m 3,7 km/h (1 Bft) S 180 7,4 C 23,5 C 6,6 km/h (2 Bft)
28.05.2012 11:40 21,8 C 38 % 0,0 l/m 3,7 km/h (1 Bft) S 180 6,8 C 24,0 C 5,0 km/h (1 Bft)
28.05.2012 11:45 22,4 C 35 % 0,0 l/m 3,2 km/h (1 Bft) S 180 6,2 C 24,5 C 5,0 km/h (1 Bft)
28.05.2012 11:50 21,6 C 38 % 0,0 l/m 3,7 km/h (1 Bft) SO 135 6,7 C 24,6 C 4,5 km/h (1 Bft)
28.05.2012 11:55 22,3 C 38 % 0,0 l/m 3,9 km/h (1 Bft) SO 135 7,3 C 24,2 C 5,1 km/h (1 Bft)
28.05.2012 12:00 22,7 C 37 % 0,0 l/m 4,3 km/h (1 Bft) O 90 7,3 C 24,3 C 9,3 km/h (2 Bft)
28.05.2012 12:05 23,1 C 34 % 0,0 l/m 5,1 km/h (1 Bft) SO 135 6,4 C 24,5 C 5,6 km/h (1 Bft)
28.05.2012 12:10 22,3 C 36 % 0,0 l/m 4,3 km/h (1 Bft) N 360 6,5 C 24,7 C 3,7 km/h (1 Bft)
28.05.2012 12:15 20,9 C 37 % 0,0 l/m 3,1 km/h (1 Bft) S 180 5,7 C 24,2 C 1,9 km/h (1 Bft)
28.05.2012 12:20 22,0 C 38 % 0,0 l/m 3,4 km/h (1 Bft) S 180 7,0 C 24,3 C 4,5 km/h (1 Bft)
28.05.2012 12:25 20,6 C 38 % 0,0 l/m 4,5 km/h (1 Bft) S 180 5,8 C 23,5 C 5,3 km/h (1 Bft)
28.05.2012 12:30 19,7 C 41 % 0,0 l/m 4,7 km/h (1 Bft) O-SO 112 6,1 C 21,7 C 0,0 km/h (0 Bft)
28.05.2012 12:35 19,6 C 41 % 0,0 l/m 3,5 km/h (1 Bft) W-NW 292 6,0 C 21,4 C 4,3 km/h (1 Bft)
28.05.2012 12:40 19,1 C 41 % 0,0 l/m 3,2 km/h (1 Bft) S 180 5,5 C 20,8 C 7,2 km/h (2 Bft)
28.05.2012 12:45 18,8 C 43 % 0,0 l/m 4,7 km/h (1 Bft) S-SW 202 6,0 C 20,2 C 7,2 km/h (2 Bft)
28.05.2012 12:50 18,5 C 45 % 0,0 l/m 6,9 km/h (2 Bft) S 180 6,3 C 19,1 C 12,4 km/h (3 Bft)
28.05.2012 12:55 18,6 C 43 % 0,0 l/m 6,6 km/h (2 Bft) S 180 5,8 C 19,1 C 5,0 km/h (1 Bft)
28.05.2012 13:00 18,9 C 44 % 0,0 l/m 5,1 km/h (1 Bft) SW 225 6,4 C 19,3 C 2,3 km/h (1 Bft)
28.05.2012 13:05 21,3 C 41 % 0,0 l/m 4,7 km/h (1 Bft) S 180 7,5 C 20,6 C 2,7 km/h (1 Bft)
28.05.2012 13:10 21,4 C 39 % 0,0 l/m 2,9 km/h (1 Bft) S 180 6,9 C 23,3 C 5,6 km/h (1 Bft)
28.05.2012 13:15 20,0 C 40 % 0,0 l/m 2,9 km/h (1 Bft) O 90 6,0 C 23,3 C 3,1 km/h (1 Bft)
28.05.2012 13:20 18,7 C 44 % 0,0 l/m 3,9 km/h (1 Bft) W-SW 247 6,2 C 21,4 C 4,0 km/h (1 Bft)
28.05.2012 13:25 18,5 C 46 % 0,0 l/m 4,0 km/h (1 Bft) S 180 6,7 C 20,5 C 3,7 km/h (1 Bft)
28.05.2012 13:30 20,5 C 43 % 0,0 l/m 3,7 km/h (1 Bft) NW 315 7,5 C 20,4 C 2,4 km/h (1 Bft)
28.05.2012 13:35 21,8 C 39 % 0,0 l/m 3,4 km/h (1 Bft) SW 225 7,2 C 21,6 C 4,0 km/h (1 Bft)
28.05.2012 13:40 22,1 C 37 % 0,0 l/m 3,4 km/h (1 Bft) O 90 6,7 C 23,1 C 3,1 km/h (1 Bft)
28.05.2012 13:45 22,5 C 36 % 0,0 l/m 2,6 km/h (1 Bft) S-SW 202 6,7 C 24,3 C 0,0 km/h (0 Bft)
28.05.2012 13:50 22,0 C 37 % 0,0 l/m 2,7 km/h (1 Bft) S 180 6,6 C 25,5 C 9,3 km/h (2 Bft)
28.05.2012 13:55 20,9 C 38 % 0,0 l/m 4,2 km/h (1 Bft) O-SO 112 6,0 C 24,3 C 5,1 km/h (1 Bft)
28.05.2012 14:00 20,3 C 40 % 0,0 l/m 4,7 km/h (1 Bft) S-SO 157 6,3 C 22,6 C 8,5 km/h (2 Bft)
28.05.2012 14:05 20,0 C 41 % 0,0 l/m 4,5 km/h (1 Bft) S-SO 157 6,3 C 22,1 C 6,0 km/h (2 Bft)
28.05.2012 14:10 21,2 C 38 % 0,0 l/m 6,6 km/h (2 Bft) O-SO 112 6,3 C 21,6 C 16,4 km/h (3 Bft)
28.05.2012 14:16 22,1 C 38 % 0,0 l/m 6,8 km/h (2 Bft) SO 135 7,1 C 22,4 C 6,1 km/h (2 Bft)
28.05.2012 14:20 22,8 C 35 % 0,0 l/m 6,0 km/h (2 Bft) SO 135 6,5 C 23,7 C 5,8 km/h (2 Bft)
28.05.2012 14:25 21,3 C 37 % 0,0 l/m 4,7 km/h (1 Bft) O 90 6,0 C 23,7 C 4,8 km/h (1 Bft)
28.05.2012 14:30 20,4 C 37 % 0,0 l/m 4,5 km/h (1 Bft) S-SO 157 5,2 C 22,6 C 6,1 km/h (2 Bft)
28.05.2012 14:35 20,3 C 38 % 0,0 l/m 5,1 km/h (1 Bft) O-SO 112 5,5 C 21,9 C 5,1 km/h (1 Bft)
28.05.2012 14:40 20,3 C 42 % 0,0 l/m 3,5 km/h (1 Bft) S-SO 157 7,0 C 21,7 C 3,7 km/h (1 Bft)
28.05.2012 14:45 20,6 C 42 % 0,0 l/m 2,7 km/h (1 Bft) S 180 7,2 C 21,7 C 4,0 km/h (1 Bft)
28.05.2012 14:50 20,8 C 39 % 0,0 l/m 3,2 km/h (1 Bft) SO 135 6,3 C 22,1 C 4,2 km/h (1 Bft)
28.05.2012 14:55 20,4 C 39 % 0,0 l/m 3,4 km/h (1 Bft) S-SW 202 6,0 C 22,0 C 6,0 km/h (2 Bft)
28.05.2012 15:00 19,5 C 41 % 0,0 l/m 3,7 km/h (1 Bft) SO 135 5,9 C 21,2 C 3,1 km/h (1 Bft)
28.05.2012 15:05 19,1 C 42 % 0,0 l/m 3,5 km/h (1 Bft) S 180 5,9 C 20,6 C 2,6 km/h (1 Bft)
28.05.2012 15:10 18,5 C 46 % 0,0 l/m 3,2 km/h (1 Bft) S-SO 157 6,7 C 19,8 C 3,7 km/h (1 Bft)
28.05.2012 15:15 18,0 C 48 % 0,0 l/m 3,5 km/h (1 Bft) S 180 6,8 C 19,2 C 4,5 km/h (1 Bft)
28.05.2012 15:20 17,4 C 50 % 0,0 l/m 4,0 km/h (1 Bft) O-SO 112 6,9 C 17,8 C 3,1 km/h (1 Bft)
28.05.2012 15:25 17,4 C 50 % 0,0 l/m 3,2 km/h (1 Bft) S 180 6,9 C 17,6 C 0,0 km/h (0 Bft)
28.05.2012 15:30 17,3 C 53 % 0,0 l/m 0,8 km/h (0 Bft) NO 45 7,6 C 17,6 C 0,0 km/h (0 Bft)
28.05.2012 15:35 16,9 C 56 % 0,0 l/m 0,2 km/h (0 Bft) N-NO 22 8,1 C 17,8 C 0,0 km/h (0 Bft)
28.05.2012 15:40 17,4 C 55 % 0,0 l/m 0,3 km/h (0 Bft) N-NO 22 8,3 C 18,2 C 0,0 km/h (0 Bft)
28.05.2012 15:45 17,4 C 53 % 0,0 l/m 0,3 km/h (0 Bft) N-NW 337 7,7 C 18,7 C 0,0 km/h (0 Bft)
28.05.2012 15:50 19,0 C 51 % 0,0 l/m 1,1 km/h (1 Bft) SO 135 8,6 C 19,4 C 4,3 km/h (1 Bft)
28.05.2012 15:55 20,8 C 46 % 0,0 l/m 2,1 km/h (1 Bft) SO 135 8,8 C 21,0 C 4,5 km/h (1 Bft)
28.05.2012 16:00 20,7 C 43 % 0,0 l/m 3,2 km/h (1 Bft) SO 135 7,7 C 23,1 C 3,5 km/h (1 Bft)
28.05.2012 16:05 19,6 C 47 % 0,0 l/m 3,1 km/h (1 Bft) S 180 8,0 C 22,6 C 0,0 km/h (0 Bft)
28.05.2012 16:10 19,4 C 48 % 0,0 l/m 2,6 km/h (1 Bft) S 180 8,1 C 21,6 C 2,7 km/h (1 Bft)
28.05.2012 16:15 19,4 C 48 % 0,0 l/m 2,1 km/h (1 Bft) S-SO 157 8,1 C 21,2 C 2,4 km/h (1 Bft)
28.05.2012 16:20 19,1 C 47 % 0,0 l/m 1,9 km/h (1 Bft) S-SO 157 7,5 C 20,7 C 0,0 km/h (0 Bft)
28.05.2012 16:25 18,9 C 48 % 0,0 l/m 2,4 km/h (1 Bft) O 90 7,6 C 20,4 C 4,3 km/h (1 Bft)
28.05.2012 16:30 19,0 C 46 % 0,0 l/m 3,9 km/h (1 Bft) SO 135 7,1 C 20,3 C 8,0 km/h (2 Bft)
28.05.2012 16:35 18,8 C 47 % 0,0 l/m 4,3 km/h (1 Bft) S-SW 202 7,2 C 20,0 C 6,3 km/h (2 Bft)
28.05.2012 16:40 18,2 C 48 % 0,0 l/m 5,5 km/h (1 Bft) O-SO 112 7,0 C 19,4 C 8,2 km/h (2 Bft)
28.05.2012 16:45 18,1 C 48 % 0,0 l/m 5,8 km/h (2 Bft) S 180 6,9 C 19,0 C 6,6 km/h (2 Bft)
28.05.2012 16:50 18,4 C 49 % 0,0 l/m 4,7 km/h (1 Bft) SO 135 7,5 C 19,0 C 4,3 km/h (1 Bft)
28.05.2012 16:55 18,6 C 49 % 0,0 l/m 3,7 km/h (1 Bft) O-SO 112 7,7 C 19,1 C 5,3 km/h (1 Bft)
28.05.2012 17:00 19,2 C 49 % 0,0 l/m 3,1 km/h (1 Bft) SO 135 8,2 C 20,1 C 5,6 km/h (1 Bft)
28.05.2012 17:05 18,9 C 48 % 0,0 l/m 3,7 km/h (1 Bft) O-SO 112 7,6 C 20,3 C 3,1 km/h (1 Bft)
28.05.2012 17:10 18,7 C 49 % 0,0 l/m 3,7 km/h (1 Bft) SO 135 7,8 C 20,0 C 2,7 km/h (1 Bft)
28.05.2012 17:15 18,6 C 50 % 0,0 l/m 2,4 km/h (1 Bft) N 360 8,0 C 19,9 C 3,2 km/h (1 Bft)
28.05.2012 17:20 18,5 C 51 % 0,0 l/m 1,8 km/h (1 Bft) SO 135 8,2 C 19,8 C 6,0 km/h (2 Bft)
28.05.2012 17:25 18,3 C 49 % 0,0 l/m 2,7 km/h (1 Bft) O-SO 112 7,4 C 19,6 C 6,8 km/h (2 Bft)
28.05.2012 17:30 17,8 C 52 % 0,0 l/m 2,9 km/h (1 Bft) S-SW 202 7,8 C 19,1 C 1,9 km/h (1 Bft)
28.05.2012 17:35 17,6 C 52 % 0,0 l/m 2,6 km/h (1 Bft) S-SO 157 7,6 C 18,6 C 2,7 km/h (1 Bft)
28.05.2012 17:40 17,1 C 53 % 0,0 l/m 2,4 km/h (1 Bft) O 90 7,4 C 17,3 C 3,1 km/h (1 Bft)
28.05.2012 17:45 17,2 C 53 % 0,0 l/m 2,7 km/h (1 Bft) O-SO 112 7,5 C 17,3 C 5,3 km/h (1 Bft)
28.05.2012 17:50 17,5 C 55 % 0,0 l/m 4,2 km/h (1 Bft) O-NO 67 8,4 C 17,6 C 4,5 km/h (1 Bft)
28.05.2012 17:55 17,7 C 53 % 0,0 l/m 4,2 km/h (1 Bft) SO 135 8,0 C 17,8 C 2,6 km/h (1 Bft)
28.05.2012 18:00 17,8 C 55 % 0,0 l/m 2,1 km/h (1 Bft) SO 135 8,6 C 18,1 C 2,9 km/h (1 Bft)
28.05.2012 18:05 17,8 C 55 % 0,0 l/m 1,1 km/h (1 Bft) S-SO 157 8,6 C 18,2 C 2,6 km/h (1 Bft)
28.05.2012 18:10 17,7 C 56 % 0,0 l/m 1,4 km/h (1 Bft) O-SO 112 8,8 C 18,3 C 3,4 km/h (1 Bft)
28.05.2012 18:15 17,7 C 55 % 0,0 l/m 1,8 km/h (1 Bft) SO 135 8,5 C 18,4 C 2,6 km/h (1 Bft)
28.05.2012 18:20 17,6 C 54 % 0,0 l/m 1,9 km/h (1 Bft) O 90 8,2 C 18,4 C 3,5 km/h (1 Bft)
28.05.2012 18:25 17,6 C 55 % 0,0 l/m 1,3 km/h (1 Bft) O 90 8,5 C 18,5 C 0,0 km/h (0 Bft)
28.05.2012 18:30 17,4 C 56 % 0,0 l/m 1,0 km/h (0 Bft) O-NO 67 8,5 C 18,7 C 1,6 km/h (1 Bft)
28.05.2012 18:35 17,5 C 56 % 0,0 l/m 0,6 km/h (0 Bft) NO 45 8,6 C 18,8 C 0,0 km/h (0 Bft)
28.05.2012 18:40 17,6 C 56 % 0,0 l/m 1,0 km/h (0 Bft) W-SW 247 8,7 C 19,1 C 0,0 km/h (0 Bft)
28.05.2012 18:45 18,0 C 56 % 0,0 l/m 1,4 km/h (1 Bft) O-SO 112 9,1 C 19,6 C 1,6 km/h (1 Bft)
28.05.2012 18:50 18,0 C 56 % 0,0 l/m 1,9 km/h (1 Bft) N 360 9,1 C 20,1 C 1,6 km/h (1 Bft)
28.05.2012 18:55 17,5 C 57 % 0,0 l/m 1,9 km/h (1 Bft) NO 45 8,9 C 19,7 C 2,4 km/h (1 Bft)
28.05.2012 19:00 17,3 C 58 % 0,0 l/m 0,8 km/h (0 Bft) N-NW 337 9,0 C 19,1 C 1,6 km/h (1 Bft)
28.05.2012 19:05 17,3 C 58 % 0,0 l/m 0,6 km/h (0 Bft) N 360 9,0 C 19,0 C 3,5 km/h (1 Bft)
28.05.2012 19:10 17,2 C 59 % 0,0 l/m 0,6 km/h (0 Bft) O-NO 67 9,1 C 18,8 C 2,1 km/h (1 Bft)
28.05.2012 19:15 16,9 C 62 % 0,0 l/m 0,8 km/h (0 Bft) O 90 9,6 C 18,7 C 3,5 km/h (1 Bft)
28.05.2012 19:20 16,9 C 61 % 0,0 l/m 1,4 km/h (1 Bft) NO 45 9,3 C 18,5 C 5,8 km/h (2 Bft)
28.05.2012 19:25 16,7 C 63 % 0,0 l/m 1,6 km/h (1 Bft) N 360 9,6 C 18,4 C 0,0 km/h (0 Bft)
28.05.2012 19:30 16,6 C 62 % 0,0 l/m 1,0 km/h (0 Bft) O-SO 112 9,3 C 18,1 C 4,0 km/h (1 Bft)
28.05.2012 19:35 16,5 C 62 % 0,0 l/m 1,4 km/h (1 Bft) NO 45 9,2 C 17,8 C 4,3 km/h (1 Bft)
28.05.2012 19:40 16,3 C 62 % 0,0 l/m 2,1 km/h (1 Bft) O-SO 112 9,0 C 17,3 C 1,6 km/h (1 Bft)
28.05.2012 19:45 16,3 C 61 % 0,0 l/m 1,4 km/h (1 Bft) NO 45 8,8 C 17,3 C 3,2 km/h (1 Bft)
28.05.2012 19:50 16,3 C 60 % 0,0 l/m 1,6 km/h (1 Bft) O 90 8,5 C 17,2 C 3,4 km/h (1 Bft)
28.05.2012 19:55 16,2 C 61 % 0,0 l/m 1,4 km/h (1 Bft) O 90 8,7 C 17,1 C 2,3 km/h (1 Bft)
28.05.2012 20:00 16,0 C 60 % 0,0 l/m 0,8 km/h (0 Bft) NO 45 8,2 C 16,9 C 0,0 km/h (0 Bft)
28.05.2012 20:05 15,9 C 63 % 0,0 l/m 0,6 km/h (0 Bft) N 360 8,9 C 16,7 C 0,0 km/h (0 Bft)
28.05.2012 20:10 15,6 C 64 % 0,0 l/m 0,5 km/h (0 Bft) NO 45 8,8 C 16,3 C 0,0 km/h (0 Bft)
28.05.2012 20:15 15,3 C 66 % 0,0 l/m 0,3 km/h (0 Bft) N 360 9,0 C 16,0 C 0,0 km/h (0 Bft)
28.05.2012 20:20 15,0 C 66 % 0,0 l/m 0,5 km/h (0 Bft) N-NO 22 8,7 C 15,6 C 1,8 km/h (1 Bft)
28.05.2012 20:25 14,8 C 68 % 0,0 l/m 0,6 km/h (0 Bft) N-NO 22 9,0 C 15,3 C 0,0 km/h (0 Bft)
28.05.2012 20:30 14,6 C 68 % 0,0 l/m 1,0 km/h (0 Bft) NO 45 8,8 C 15,0 C 0,0 km/h (0 Bft)
28.05.2012 20:35 14,4 C 68 % 0,0 l/m 0,6 km/h (0 Bft) N-NO 22 8,6 C 15,0 C 0,0 km/h (0 Bft)
28.05.2012 20:40 14,2 C 69 % 0,0 l/m 0,5 km/h (0 Bft) N-NO 22 8,6 C 15,2 C 2,3 km/h (1 Bft)
28.05.2012 20:45 14,2 C 69 % 0,0 l/m 0,8 km/h (0 Bft) N 360 8,6 C 15,2 C 3,4 km/h (1 Bft)
28.05.2012 20:50 13,8 C 70 % 0,0 l/m 1,6 km/h (1 Bft) N 360 8,4 C 14,8 C 4,3 km/h (1 Bft)
28.05.2012 20:55 13,5 C 70 % 0,0 l/m 2,1 km/h (1 Bft) N-NO 22 8,1 C 14,4 C 4,2 km/h (1 Bft)
28.05.2012 21:00 13,1 C 70 % 0,0 l/m 1,8 km/h (1 Bft) N-NO 22 7,8 C 13,7 C 0,0 km/h (0 Bft)
28.05.2012 21:05 12,8 C 72 % 0,0 l/m 1,1 km/h (1 Bft) N-NO 22 7,9 C 13,3 C 2,7 km/h (1 Bft)
28.05.2012 21:10 12,8 C 74 % 0,0 l/m 1,4 km/h (1 Bft) N 360 8,3 C 13,0 C 2,4 km/h (1 Bft)
28.05.2012 21:15 12,5 C 73 % 0,0 l/m 1,6 km/h (1 Bft) N 360 7,8 C 12,9 C 3,5 km/h (1 Bft)
28.05.2012 21:20 12,7 C 75 % 0,0 l/m 1,8 km/h (1 Bft) O-NO 67 8,4 C 12,9 C 3,1 km/h (1 Bft)
28.05.2012 21:25 12,8 C 75 % 0,0 l/m 2,1 km/h (1 Bft) N-NO 22 8,5 C 12,9 C 3,1 km/h (1 Bft)
28.05.2012 21:30 12,9 C 75 % 0,0 l/m 2,3 km/h (1 Bft) SO 135 8,6 C 13,0 C 3,9 km/h (1 Bft)
28.05.2012 21:35 13,3 C 74 % 0,0 l/m 3,2 km/h (1 Bft) O-SO 112 8,8 C 13,3 C 8,7 km/h (2 Bft)
28.05.2012 21:40 13,4 C 72 % 0,0 l/m 3,7 km/h (1 Bft) SO 135 8,5 C 13,6 C 3,7 km/h (1 Bft)
28.05.2012 21:45 13,4 C 71 % 0,0 l/m 3,5 km/h (1 Bft) O 90 8,3 C 13,7 C 4,2 km/h (1 Bft)
28.05.2012 21:50 13,5 C 68 % 0,0 l/m 3,1 km/h (1 Bft) O 90 7,7 C 13,9 C 4,5 km/h (1 Bft)
28.05.2012 21:55 13,3 C 68 % 0,0 l/m 2,6 km/h (1 Bft) N-NW 337 7,5 C 13,9 C 0,0 km/h (0 Bft)
28.05.2012 22:00 13,0 C 68 % 0,0 l/m 1,6 km/h (1 Bft) O-SO 112 7,2 C 13,8 C 1,9 km/h (1 Bft)
28.05.2012 22:05 12,9 C 68 % 0,0 l/m 0,8 km/h (0 Bft) N-NO 22 7,1 C 13,6 C 0,0 km/h (0 Bft)
28.05.2012 22:10 12,8 C 68 % 0,0 l/m 0,3 km/h (0 Bft) NO 45 7,0 C 13,3 C 4,2 km/h (1 Bft)
28.05.2012 22:15 12,8 C 69 % 0,0 l/m 0,5 km/h (0 Bft) N-NO 22 7,3 C 13,2 C 0,0 km/h (0 Bft)
28.05.2012 22:20 12,9 C 69 % 0,0 l/m 0,6 km/h (0 Bft) W-SW 247 7,4 C 13,0 C 1,9 km/h (1 Bft)
28.05.2012 22:25 12,8 C 69 % 0,0 l/m 0,5 km/h (0 Bft) N-NW 337 7,3 C 13,0 C 0,0 km/h (0 Bft)
28.05.2012 22:30 12,9 C 69 % 0,0 l/m 1,1 km/h (1 Bft) N-NO 22 7,4 C 13,0 C 2,6 km/h (1 Bft)
28.05.2012 22:35 12,9 C 69 % 0,0 l/m 1,3 km/h (1 Bft) N-NO 22 7,4 C 13,0 C 1,9 km/h (1 Bft)
28.05.2012 22:40 13,0 C 67 % 0,0 l/m 1,0 km/h (0 Bft) N 360 7,0 C 13,0 C 2,3 km/h (1 Bft)
28.05.2012 22:45 13,1 C 67 % 0,0 l/m 0,8 km/h (0 Bft) N 360 7,1 C 13,0 C 2,7 km/h (1 Bft)
28.05.2012 22:50 13,0 C 67 % 0,0 l/m 1,0 km/h (0 Bft) N-NO 22 7,0 C 13,1 C 0,0 km/h (0 Bft)
28.05.2012 22:55 13,0 C 67 % 0,0 l/m 0,6 km/h (0 Bft) N-NO 22 7,0 C 13,1 C 1,8 km/h (1 Bft)
28.05.2012 23:00 12,8 C 68 % 0,0 l/m 0,2 km/h (0 Bft) N-NW 337 7,0 C 13,0 C 0,0 km/h (0 Bft)
28.05.2012 23:05 12,7 C 68 % 0,0 l/m 0,3 km/h (0 Bft) N-NW 337 6,9 C 12,8 C 2,4 km/h (1 Bft)
28.05.2012 23:10 12,5 C 68 % 0,0 l/m 0,3 km/h (0 Bft) NO 45 6,8 C 12,6 C 0,0 km/h (0 Bft)
28.05.2012 23:15 12,3 C 68 % 0,0 l/m 0,2 km/h (0 Bft) S 180 6,6 C 12,5 C 0,0 km/h (0 Bft)
28.05.2012 23:20 12,4 C 69 % 0,0 l/m 0,3 km/h (0 Bft) N 360 6,9 C 12,3 C 1,8 km/h (1 Bft)
28.05.2012 23:25 12,5 C 69 % 0,0 l/m 0,5 km/h (0 Bft) N-NW 337 7,0 C 12,3 C 2,1 km/h (1 Bft)
28.05.2012 23:30 12,5 C 69 % 0,0 l/m 0,8 km/h (0 Bft) NO 45 7,0 C 12,3 C 0,0 km/h (0 Bft)
28.05.2012 23:35 12,4 C 69 % 0,0 l/m 1,0 km/h (0 Bft) SO 135 6,9 C 12,3 C 1,8 km/h (1 Bft)
28.05.2012 23:40 12,4 C 70 % 0,0 l/m 1,1 km/h (1 Bft) N-NO 22 7,1 C 12,4 C 2,7 km/h (1 Bft)
28.05.2012 23:45 12,4 C 70 % 0,0 l/m 1,0 km/h (0 Bft) NO 45 7,1 C 12,3 C 1,9 km/h (1 Bft)
28.05.2012 23:50 12,3 C 70 % 0,0 l/m 0,8 km/h (0 Bft) N-NO 22 7,0 C 12,2 C 1,9 km/h (1 Bft)
28.05.2012 23:55 12,3 C 71 % 0,0 l/m 1,3 km/h (1 Bft) N-NO 22 7,2 C 12,1 C 3,1 km/h (1 Bft)
_ Min-Zeit 02:10 12:05 - 09:10 - - 02:05 02:20 23:30
Minimum _ 7,4 C 34 % - 0,0 km/h (0 Bft) - - 3,9 C 6,9 C 0,0 km/h (0 Bft)
_ Max-Zeit 12:05 03:20 23:55 12:50 - - 19:25 13:50 14:10
Maximum _ 23,1 C 80 % 0,0 l/m 6,9 km/h
S (2 Bft)
- - 9,6 C 25,5 C 16,4 km/h
O-SO (3 Bft)
Durchschnitt _ 14,5 C 62 % #0,0 l/m 1,6 km/h (1 Bft) SO - 6,9 C 15,1 C 2,2 km/h (1 Bft)